Location: Helsinki
(60.1699°N, 24.9384°E)
Time: 23:54:46
(UTC+02:00)

A-11 Canister half - Pass Details

Date: 31 October 2020
Orbit: 1516 x 1684 km, 47.2° (Epoch: 26 November)

Event Time Altitude Azimuth Distance (km) Brightness Sun altitude
Rises 23:58:18 0° 264° (W) 4,915 11.6 -44.0°
Enters shadow 23:59:00 - 262° (W) 4,706 11.5 -44.0°
Reaches altitude 10° 00:01:48 10° 256° (WSW) 3,909 - -44.0°
Maximum altitude 00:10:28 36° 195° (SSW) 2,384 - -44.0°
Drops below altitude 10° 00:18:54 10° 134° (SE) 3,792 - -43.9°
Sets 00:22:15 0° 126° (SE) 4,751 - -43.9°
